Meteo Giornale » Osservazioni meteo Brasile » Boa Vista Aeropor-To
ore: 23:00 - Osservazioni Meteo Boa Vista Aeropor-To
Lat. 2° 50' N Lon. 60° 42' W Alt. 140 metri s.l.m.
29 °C
Sereno
Temp. 24 Ore
26 °C
35 °C
Est
9.3 Km/h
Dew point 23 °C
Umidità 70 %
Visibilità 10 Km
Il sole sorge alle ore 05:57
Il sole tramonta alle ore 18:07
| Data e Ora | Cielo e Fenomeni | T °C | DP °C | Um. % | Pres. hPa | Vis. km | Vento km/h | |
|---|---|---|---|---|---|---|---|---|
| Oggi h: 23:00 | Sereno | 29 | 23 | 70 | 1013 | 10 | E 9.3 | |
| Oggi h: 22:00 | Sereno | 30 | 23 | 66 | 1013 | 10 | E 9.3 | |
| Oggi h: 21:00 | Sereno | 31 | 22 | 58 | 1012 | 10 | E/SE 9.3 | |
| Oggi h: 20:00 | Sereno | 32 | 22 | 55 | 1012 | 10 | E/SE 9.3 | |
| Oggi h: 19:00 | Poco Nuvoloso | 33 | 22 | 52 | 1011 | 10 | E/SE 14.8 | |
| Oggi h: 18:00 | Poco Nuvoloso | 34 | 21 | 46 | 1010 | 10 | E/SE 18.5 | |
| Oggi h: 17:00 | Nuvoloso | 35 | 21 | 44 | 1010 | 10 | E/SE 20.3 | |
| Oggi h: 16:00 | Nuvoloso | 35 | 20 | 41 | 1010 | 10 | SE 20.3 | |
| Oggi h: 15:00 | Nuvoloso | 35 | 21 | 44 | 1011 | 10 | E/SE 16.7 | |
| Oggi h: 14:00 | Molto Nuvoloso | 35 | 22 | 47 | 1012 | 10 | SE 16.7 | |
| Oggi h: 13:00 | Molto Nuvoloso | 34 | 22 | 49 | 1013 | 10 | E/SE 16.7 | |
| Oggi h: 12:00 | Nuvoloso | 32 | 22 | 55 | 1014 | 10 | E/SE 18.5 | |
| Oggi h: 11:00 | Sereno | 29 | 22 | 66 | 1015 | 10 | E/SE 13 | |
| Oggi h: 10:00 | Sereno | 28 | 22 | 69 | 1015 | 10 | E/SE 13 | |
| Oggi h: 09:00 | Sereno | 27 | 22 | 74 | 1015 | 10 | SE 16.7 | |
| Oggi h: 08:00 | Sereno | 26 | 22 | 78 | 1014 | 10 | E/SE 16.7 | |
| Oggi h: 07:00 | Sereno | 26 | 23 | 83 | 1013 | 10 | E/SE 18.5 | |
| Oggi h: 06:00 | Sereno | 26 | 23 | 83 | 1013 | 10 | E/SE 24 | |
| Oggi h: 05:00 | Sereno | 27 | 23 | 78 | 1012 | 10 | E/SE 20.3 | |
| Oggi h: 04:00 | Sereno | 27 | 24 | 83 | 1012 | 10 | E/SE 16.7 | |
| Oggi h: 03:00 | Nuvoloso | 27 | 24 | 83 | 1011 | 10 | E 14.8 | |
| Oggi h: 02:00 | Nuvoloso | 28 | 24 | 78 | 1011 | 10 | E 13 | |
| Oggi h: 01:00 | Nuvoloso | 29 | 24 | 74 | 1012 | 10 | E 11.1 | |
| Oggi h: 00:00 | Nuvoloso | 29 | 24 | 74 | 1012 | 10 | E 9.3 | |



